Location: Henderson
(36.0400°N, 114.9810°W)
Time: 15:32:17
(UTC-07:00)

Daily predictions for brighter satellites

Satellite Brightness Start Highest point End
(mag) Time Altitude Azimuth Time Altitude Azimuth Time Altitude Azimuth
Cosmos 2181 Rocket 4.5 19:31:12 10° N 19:37:38 73° W 19:44:01 10° S
Cosmos 1269 Rocket 4.3 19:32:57 10° NNW 19:38:15 76° WSW 19:43:32 10° S
Cosmos 1500 Rocket 4.1 19:35:45 10° NNW 19:40:11 66° W 19:44:35 10° S
In-Cosmos 22 Rocket 4.5 19:35:35 10° N 19:40:49 45° ENE 19:45:54 10° SSE
Cosmos 2322 4.2 19:43:33 10° SSW 19:49:10 68° WNW 19:54:50 10° NNE
USA 186 2.8 19:49:35 10° ESE 19:51:00 15° ENE 19:52:27 10° NNE
SJ-6B 3.0 19:47:11 10° SSE 19:51:10 57° ENE 19:55:05 10° N
SL-24 R/B - RUBIN 2 4.4 19:48:10 10° NNW 19:52:09 34° NE 19:56:09 10° ESE
Cosmos 1666 Rocket 4.4 19:49:09 10° NNE 19:53:10 32° ENE 19:57:08 10° SE
Cosmos 2074 Rocket 4.2 19:46:58 10° S 19:53:16 84° W 19:59:35 10° N
HJ-1C 3.3 19:50:05 10° SSE 19:53:24 82° E 19:56:46 10° N
SPOT 3 Rocket 4.4 19:48:35 10° S 19:53:37 53° W 19:58:40 10° NNW
Cosmos 1939 Rocket 3.9 19:51:12 10° SE 19:54:25 26° ENE 19:57:42 10° NNE
Thor Agena Rocket 3.7 19:50:47 10° NNE 19:55:55 53° ESE 20:01:03 10° S
Cosmos 1610 Rocket 4.4 19:53:57 10° S 20:00:01 72° E 20:06:09 10° N
Sakura Rocket 4.3 19:57:24 10° SW 20:01:29 26° S 20:04:18 13° ESE
Cosmos 1151 Rocket 4.4 20:01:27 10° SE 20:04:23 19° E 20:07:23 10° NE
Meteor 2-3 Rocket 4.5 19:59:54 10° NNE 20:04:54 32° ENE 20:09:43 11° SE
ATLAS 2A CENTAUR R/B 4.1 19:59:58 10° WSW 20:05:30 21° SSW 20:07:58 10° SSE
Sich 1 3.2 20:01:29 10° N 20:05:37 48° E 20:09:44 10° SSE
Cosmos 1300 4.4 20:03:48 10° SSW 20:07:21 37° W 20:10:57 10° N
NOSS 2-1 (C) 3.9 20:04:00 10° SW 20:07:32 55° NW 20:11:18 10° NNE
NOSS 2-1 (D) 4.0 20:04:59 10° SW 20:08:31 52° NW 20:12:16 10° NNE
Spot 2 Rocket 4.3 20:06:33 12° SE 20:10:44 33° ENE 20:15:14 10° N
Cosmos 1809 Rocket 4.4 20:05:25 10° S 20:11:32 80° E 20:17:44 10° N
ATLAS 2AS CENTAUR R/B 3.5 20:10:02 10° NNW 20:17:26 41° NE 20:22:42 17° ESE
Cosmos 1980 4.0 20:18:39 10° S 20:23:59 44° ESE 20:29:21 10° NE
H-2A R/B 3.1 20:22:34 10° WSW 20:24:12 12° SW 20:25:22 10° SSW
OAO 2 Rocket 3.4 20:19:43 10° W 20:24:55 70° S 20:28:16 21° ESE
CZ-2D R/B 4.1 20:21:54 10° S 20:25:34 49° W 20:29:17 10° NNW
Cosmos 1633 Rocket 3.0 20:21:52 10° N 20:26:10 62° E 20:29:56 13° SSE
Nadezhda 3 Rocket 4.0 20:20:07 10° N 20:26:27 76° E 20:32:48 10° S
Meteor 2-14 Rocket 4.4 20:23:18 10° S 20:29:22 83° E 20:35:30 10° N
Cosmos 1455 2.1 20:27:23 10° S 20:31:11 74° E 20:35:01 10° N
Meteor 1-27 4.2 20:25:50 10° S 20:31:34 72° E 20:37:13 10° NNE
Cosmos 2333 Rocket 2.2 20:26:57 10° SSW 20:32:38 88° ESE 20:38:19 10° NNE
ERS-2 2.8 20:29:39 10° S 20:33:14 55° WSW 20:36:51 10° NNW
Cosmos 1515 Rocket 3.9 20:29:50 12° SSE 20:33:43 45° E 20:37:59 10° NNE
Cosmos 2228 Rocket 3.3 20:30:12 13° SSE 20:33:52 45° E 20:38:03 10° NNE
Cosmos 1408 3.7 20:32:58 10° NNE 20:36:04 25° ENE 20:36:08 25° E
COSMOS 2428 3.8 20:32:25 10° SW 20:37:56 48° WNW 20:43:27 10° N
Meteor 2-15 Rocket 4.5 20:32:20 10° N 20:38:31 86° W 20:44:37 10° S
Meteor 2-16 Rocket 4.4 20:32:45 10° S 20:38:53 81° E 20:45:02 10° N
Cosmos 1892 2.9 20:36:54 10° N 20:40:47 74° W 20:44:02 14° S
Cosmos 1844 Rocket 3.0 20:37:56 10° NNW 20:43:35 68° WSW 20:48:27 14° S
SL-8 R/B 3.7 20:40:25 10° SW 20:45:12 86° NW 20:50:02 10° NE
Cosmos 1844 3.7 20:41:42 10° NNW 20:47:26 83° WSW 20:51:30 20° SSE
H-2A R/B 3.2 20:48:27 22° E 20:49:05 23° ENE 20:52:57 10° NNE
YAOGAN 6 3.5 20:46:47 13° S 20:49:48 48° W 20:53:19 10° NNW
ERS-1 Rocket 4.3 20:50:13 21° ENE 20:50:42 21° ENE 20:54:26 10° NNE
Cosmos 2219 Rocket 3.0 20:45:28 10° SW 20:50:59 54° WNW 20:56:32 10° NNE
BREEZE-M DEB (TANK) 3.6 20:47:02 10° WNW 20:51:22 49° SW 20:52:42 31° SSE
Cosmos 2237 Rocket 2.1 20:45:59 10° SSW 20:51:33 73° ESE 20:57:10 10° NNE
Cosmos 1328 Rocket 3.9 20:49:14 10° SSW 20:53:36 67° W 20:58:01 10° N
Genesis I 3.6 20:50:53 10° NNW 20:54:49 47° ENE 20:55:26 43° E
Cosmos 1371 Rocket 4.2 20:52:00 17° S 20:55:54 50° ESE 21:01:03 10° NNE
Resurs 01 Rocket 2.1 20:53:38 16° S 20:57:07 60° WSW 21:01:32 10° NNW
USA 267 3.5 20:56:20 10° ENE 21:02:25 40° SE 21:08:27 10° SSW
Cosmos 2278 Rocket 2.3 20:58:12 10° NNW 21:03:47 56° ENE 21:05:28 41° ESE
NOAA 11 4.2 21:02:20 26° SSE 21:05:35 86° WSW 21:11:08 10° NNW
ATLAS CENTAUR R/B 2.9 21:04:16 10° WSW 21:07:35 33° NW 21:11:03 10° NNE
Cosmos 1470 Rocket 3.5 21:03:59 10° N 21:08:25 84° W 21:09:51 43° S
Cosmos 1959 Rocket 4.3 21:07:36 17° S 21:12:26 79° E 21:18:34 10° N
Cosmos 1727 Rocket 4.2 21:09:23 10° N 21:15:20 47° E 21:16:20 43° ESE
Cosmos 2056 Rocket 3.5 21:15:54 44° SSE 21:17:28 64° ESE 21:22:49 10° NNE
Cosmos 2098 Rocket 3.0 21:20:03 63° SSE 21:20:46 80° E 21:24:52 10° N
Cosmos 1825 2.3 21:18:00 10° N 21:21:24 70° NNW 21:21:24 70° NNW
Cosmos 2218 Rocket 4.1 21:22:06 15° S 21:27:31 78° W 21:33:56 10° N
SL-08 R/B 4.4 21:26:47 32° S 21:29:58 87° E 21:36:25 10° N
Cosmos 1624 Rocket 3.9 21:32:55 43° SSW 21:34:40 83° WNW 21:39:53 10° NNE
Cosmos 1933 Rocket 4.4 21:32:51 10° NNW 21:37:02 46° W 21:37:45 41° WSW
Cosmos 1869 4.1 21:38:19 48° W 21:38:29 48° W 21:42:23 10° N
Cosmos 2366 rocket 4.2 21:36:09 22° SSW 21:40:17 67° W 21:46:33 10° N
SL-16 R/B 2.0 21:41:17 73° E 21:41:17 73° E 21:46:42 10° NNE
Cosmos 1190 Rocket 4.3 21:36:25 10° N 21:41:05 53° NE 21:41:05 53° NE
Terra 3.9 21:43:59 16° NE 21:43:59 16° NE 21:45:31 10° NNE
GEOS 3 Rocket 3.7 21:43:07 10° NNE 21:48:28 78° NW 21:52:21 19° SW
ARGOS 3.2 21:48:41 67° SW 21:49:07 71° WSW 21:54:28 10° NNW
MetOp-B 4.1 21:53:32 73° WSW 21:53:37 74° WSW 21:58:59 10° NNW
SPOT 5 4.0 21:58:33 34° NNE 21:58:33 34° NNE 22:01:14 10° N
ATLAS 2AS CENTAUR R/B 3.6 22:01:16 10° NW 22:08:23 41° WSW 22:10:10 36° SW
Cosmos 2344 3.4 22:08:24 60° S 22:09:58 80° ESE 22:18:01 10° NE
Cosmos 2297 4.1 22:09:26 10° NNW 22:14:04 60° NNW 22:14:04 60° NNW
SPOT 1/Viking Rocket 4.4 22:21:26 47° NNW 22:21:26 47° NNW 22:25:07 10° NNW
Cosmos 2369 Rocket 4.2 22:19:23 10° N 22:22:03 18° NE 22:22:03 18° NE
H-2A R/B 3.4 22:29:04 34° WNW 22:29:04 34° WNW 22:32:53 10° NNW
ERS-1 Rocket 4.3 22:30:13 35° WNW 22:30:13 35° WNW 22:33:52 10° NNW
NOSS 3-4 (A) 3.9 22:31:52 10° NW 22:38:28 74° WNW 22:38:28 74° WNW
NOSS 3-4 (C) 3.9 22:31:58 10° NW 22:38:33 75° WNW 22:38:33 75° WNW
USA 267 3.9 22:39:08 10° NE 22:45:26 52° NW 22:51:43 10° WSW
Cosmos 2278 Rocket 4.3 22:43:46 10° WNW 22:47:18 17° W 22:47:20 17° W
ATLAS 5 CENTAUR R/B 4.1 22:50:29 10° N 22:54:11 24° NNE 22:54:11 24° NNE
USA 234 4.2 23:17:45 41° NNE 23:17:45 41° NNE 23:22:53 10° NNW
Terra 4.4 23:22:51 17° NW 23:22:51 17° NW 23:24:04 10° NNW
Cosmos 1943 Rocket 4.3 23:34:26 10° NNW 23:36:23 22° N 23:36:23 22° N
CZ-4C R/B 4.3 23:43:32 23° N 23:43:32 23° N 23:46:25 10° NNE
